Regional Weather Roundup
Issued by NWS Sterling, VA

Home | Current Version | Previous Version | Text Only | Print | Product List | Glossary Off
Versions: 1 2 3 4 5 6 7 8 9 10 11 12 13 14 15 16 17 18 19 20 21 22 23 24 25 26 27

000
ASUS41 KLWX 200411
RWRLWX

REGIONAL WEATHER ROUNDUP
NATIONAL WEATHER SERVICE BALTIMORE MD/WASHINGTON DC
1200 AM EDT SUN AUG 20 2017

Note: "FAIR" indicates few or no clouds below 12,000 feet
with no significant weather and/or obstructions to visibility.
 TC=TEMPERATURE CELSIUS

 * =Non NWS site. Station does not report precipitation (e.g. rain,
    snow, etc.), thunder, or fog.

DCZ001-MDZ009-015-VAZ040>042-051-053>054-200500-
WASHINGTON METRO

CITY           SKY/WX    TMP DP  RH WIND       PRES   REMARKS
WASHINGTON NAT CLOUDY    74  65  73 N7        29.99R
DULLES         PTCLDY    67  67 100 CALM      29.99R
ANDREWS AFB    MOCLDY    69  67  93 SE6       29.98S
FT BELVOIR     CLOUDY    70  67  88 CALM      29.98R
QUANTICO       PTCLDY    78  68  71 N5        29.99R
COLLEGE PARK*  PTCLDY    70  64  82 CALM      29.98R
LEESBURG*      CLEAR     68  68 100 CALM      30.01R
MANASSAS*      CLOUDY    69  67  93 CALM      29.99S
GAITHERSBURG*  CLEAR     66  65  96 CALM      30.01R

$$

MDZ006>007-011-014-200500-
BALTIMORE METRO

CITY           SKY/WX    TMP DP  RH WIND       PRES   REMARKS
BWI AIRPORT    PTCLDY    70  66  87 CALM      29.98R
MD SCIENCE CTR   N/A     73  66  78 MISG      29.98R
MARTIN STATE   PTCLDY    72  66  83 SW5       29.99R
ANNAPOLIS      MOCLDY    75  68  78 W3        29.97R
FORT MEADE*    CLEAR     66  64  94 CALM      30.01R

$$

MDZ012-015-019>023-200500-
MARYLAND EASTERN SHORE

CITY           SKY/WX    TMP DP  RH WIND       PRES   REMARKS
OCEAN CITY     CLEAR     71  70  96 CALM      29.97R
SALISBURY      CLEAR     72  70  93 CALM      29.97R
CAMBRIDGE*     PTCLDY    73  72  94 N9        29.98R
EASTON*        PTCLDY    76  65  67 N3        30.02R

$$

MDZ017>025-200500-
SOUTHERN MARYLAND

CITY           SKY/WX    TMP DP  RH WIND       PRES   REMARKS
PATUXENT RIVER CLEAR     75  72  90 SW6       29.96R
ST INIGOES     CLEAR     78  72  81 S3        29.96R
LEONARDTOWN*   PTCLDY    73  70  88 CALM      30.00R

$$

MDZ003>005-200500-
NORTH CENTRAL MARYLAND

CITY           SKY/WX    TMP DP  RH WIND       PRES   REMARKS
FREDERICK*     CLEAR     68  68 100 CALM      30.02R
HAGERSTOWN APT CLEAR     66  63  90 NE5       30.01R
WESTMINSTER*   CLEAR     66  64  94 CALM      30.00R

$$

MDZ501>502-200500-
WESTERN MARYLAND

CITY           SKY/WX    TMP DP  RH WIND       PRES   REMARKS
OAKLAND*         N/A     59  55  88 SW6       30.09R
CUMBERLAND*    CLEAR     63  63 100 N3        30.07R

$$

VAZ025>031-200500-
SHENANDOAH VALLEY

CITY           SKY/WX    TMP DP  RH WIND       PRES   REMARKS
WINCHESTER*    CLEAR     64  59  82 E3        30.01R
FRONT ROYAL*   CLEAR     64  64 100 CALM      30.00S
LURAY*         PTCLDY    68  64  88 CALM      30.02R
NEW MARKET*    PTCLDY    69  65  88 CALM      30.01R
STAUNTON*      CLEAR     69  64  83 CALM      30.06R
WAYNESBORO*    CLEAR     68  65  89 CALM      30.05R

$$

WVZ021-048>050-054>055-200500-
EASTERN WEST VIRGINIA PANHANDLE

CITY           SKY/WX    TMP DP  RH WIND       PRES   REMARKS
MARTINSBURG    CLEAR     65  62  90 CALM      30.00R
PETERSBURG*    CLEAR     71  63  77 CALM      30.05R

$$

VAZ036>039-050-200500-
CENTRAL FOOTHILLS

CITY           SKY/WX    TMP DP  RH WIND       PRES   REMARKS
CHARLOTTESVILL CLEAR     76  68  76 NE6       30.00R
CULPEPER*      PTCLDY    70  66  85 SW3       30.00R
ORANGE*        MOCLDY    70  63  78 CALM      30.00R
GORDONSVILLE*  PTCLDY    72  69  90 CALM      29.99R
WARRENTON*     MOCLDY    70  64  81 SE5       29.97F

$$

VAZ055>057-200500-
NORTH AND CENTRAL PIEDMONT

CITY           SKY/WX    TMP DP  RH WIND       PRES   REMARKS
FREDERICKSBRG* CLEAR     76  64  65 CALM      29.98R
STAFFORD*      CLEAR     69  67  93 CALM      30.02S

$$

NCZ024-NYZ072-PAZ021-071-VAZ022-071-200500-
OTHER REGIONAL OBSERVATIONS

CITY           SKY/WX    TMP DP  RH WIND       PRES   REMARKS
NEW YORK CITY  PTCLDY    80  65  59 VRB5      29.91F
PHILADELPHIA   CLOUDY    76  60  57 W9        29.95R
PITTSBURGH     CLEAR     64  63  96 CALM      30.04R
ROANOKE        PTCLDY    72  65  78 CALM      30.06R
RICHMOND       CLEAR     75  72  90 S3        29.97R
RALEIGH        PTCLDY    77  70  79 CALM      30.01R

$$

ANZ530>537-200500-
MARINE OBSERVATIONS

STATION/POSITION TIME  TEMP    WIND        PRES
                       AIR SEA DIR/SP/G
                 (UTC) (F)     (DEG/KT/KT) (MB)
THOMAS PT LIGHT  0400   77 80  230/  6/  7   N/A
BALT KEY BRIDGE  0342   73     280/  5/  7 1015.0R
COVE POINT       0342   78     310/ 12/ 20 1016.0R
LEWISETTA        0342   78 84  230/  8/  9 1014.5R
SOLOMONS ISLAND  0342   79 81  200/  5/  7   N/A
PINEY POINT      0342          220/  8/  9   N/A

$$





USA.gov is the U.S. government's official web portal to all federal, state and local government web resources and services.